AirNav   Everest Fuels
 
 1000 users online  

30PN Pittsburgh Children's Hospital Heliport
Pittsburgh, Pennsylvania, USA

GOING TO PITTSBURGH?


FAA INFORMATION EFFECTIVE 18 JUNE 2020

Location

FAA Identifier: 30PN
Lat/Long: 40-27-59.7900N 079-57-09.6100W
40-27.996500N 079-57.160167W
40.4666083,-79.9526694
(estimated)
Elevation: 1088 ft. / 332 m (estimated)
Variation: 09W (2010)
From city: 1 mile SW of PITTSBURGH, PA
Time zone: UTC -4 (UTC -5 during Standard Time)
Zip code: 15223

Heliport Operations

Heliport use: Private use. Permission required prior to landing
Activation date: 04/2009
Control tower: no
ARTCC: CLEVELAND CENTER
FSS: ALTOONA FLIGHT SERVICE STATION
NOTAMs facility: FDC (NOTAM-D service not available)
Attendance: UNATNDD
Wind indicator: yes
Segmented circle: no

Heliport Communications

PITTSBURGH APPROACH: 119.35
PITTSBURGH DEPARTURE: 119.35
WX AWOS-A at 42PN (2.4 nm W): PHONE 412-442-2213
WX ASOS at AGC (7 nm S): 120.55 (412-466-8968)
WX ASOS at PIT (13 nm W): PHONE 412-472-0145
WX AWOS-3 at FWQ (16 nm S): 118.475 (724-379-5815)
WX AWOS-3PT at BTP (19 nm N): 121.450 (724-586-6434)

Nearby radio navigation aids

VOR radial/distance  VOR name  Freq  Var
AGCr029/12.0ALLEGHENY VOR/DME110.0009W
EWCr159/24.5ELLWOOD CITY VOR/DME115.8008W
HLGr073/30.8WHEELING VOR/DME112.2007W

 
NDB name  Hdg/Dist  Freq  Var  ID
CASTLE157/39.527209WUCP ..- -.-. .--.

Heliport Services

Runway Information

Helipad H1

Dimensions: 45 x 45 ft. / 14 x 14 m
Surface: ROOFTOP, in fair condition
Runway edge lights: PERI
Latitude: 40-27.996500N
Longitude: 079-57.160167W
Elevation: 1088.0 ft.
Traffic pattern: leftleft
Markings: none, in fair condition

Heliport Ownership and Management from official FAA records

Ownership: Privately-owned
Owner: CHILDREN'S HOSPITAL OF PITTSBURGH
UPMC, 4401 PENN AVE
PITTSBURGH, PA 15201
Phone 412-692-5325
Manager: JAMES MAJSAK
4401 PENN AVENUE
PITTSBURGH, PA 15224
Phone 412-692-7252
(412) 692-5191

Additional Remarks

A52-H1 30 FT BLDG 49 FT N OF PAD.
FOR CD CTC PITTSBURGH APCH AT 412-472-5591

Instrument Procedures

There are no published instrument procedures at 30PN.

Some nearby airports with instrument procedures:

KAGC - Allegheny County Airport (7 nm S)
KPIT - Pittsburgh International Airport (13 nm W)
G05 - Finleyville Airpark (14 nm S)
KFWQ - Rostraver Airport (16 nm S)
KBTP - Pittsburgh/Butler Regional Airport (19 nm N)
 
Loc | Ops | Rwys | IFR | FBO | Links
Com | Nav | Svcs | Stats | Notes
Aerial photo
No photo
 
Sectional chart

 
Airport distance calculator
Flying to Pittsburgh Children's Hospital Heliport? Find the distance to fly.

From to 30PN

Sunrise and sunset
Times for 11-Jul-2020
 Local
(UTC-4)
 Zulu
(UTC)
Morning civil twilight05:2909:29
Sunrise06:0110:01
Sunset20:5000:50
Evening civil twilight21:2201:22

Current date and time
Zulu (UTC)  11-Jul-2020 18:17:08
Local (UTC-4)  11-Jul-2020 14:17:08
 
METAR
KAGC 
7nm S 
111753Z 27009G20KT 8SM FEW006 OVC011 21/19 A2979 RMK AO2 RAE46 SLP086 P0004 60010 T02060194 10222 20206 51007
KPIT 
14nm W 
111751Z 26008KT 10SM FEW009 SCT013 OVC020 22/19 A2979 RMK AO2 RAE1656 SLP086 BINOVC P0000 60010 T02170194 10217 20200 50007
KP53 
16nm S 
111756Z AUTO 33016KT 19/16 A2986 RMK AO1 SLP111 T01940161 10200 20189 52006
KBTP 
18nm N 
111756Z AUTO 24010G20KT 10SM OVC006 20/19 A2978 RMK AO2 RAE51 CIG 003V009 SLP083 P0001 60014 T02000194 10211 20200 51008
TAF
KAGC 
7nm S 
111730Z 1118/1218 28014G22KT P6SM SCT035 FM120000 VRB04KT P6SM FEW050 FM121400 23005KT P6SM VCSH BKN040
KPIT 
14nm W 
111730Z 1118/1224 28014G22KT P6SM SCT035 FM120000 VRB04KT P6SM FEW050 FM121900 25007KT 6SM -SHRA VCTS OVC040CB
NOTAMs
Click for the latest NOTAMs
NOTAMs are issued by the DoD/FAA and will open in a separate window not controlled by AirNav.

 

 
 

Would you like to see your business listed on this page?

 If your business provides an interesting product or service to pilots, flight crews, aircraft, or users of the Pittsburgh Children's Hospital Heliport, you should consider listing it here.  To start the listing process, click on the button below
 
Add a business
 

Other Pages about Pittsburgh Children's Hospital Heliport

Update a link
 
Copyright © AirNav, LLC. All rights reserved. Privacy Policy  Contact